Retour au catalogue

COSMOS 708

ActifMilitaireLEO
NORAD 7663·PAYLOAD·🇷🇺 Russia

Lancé Feb 12, 1975 depuis Plesetsk Cosmodrome

Loading…

Prochains Passages (prochaines 24 heures)

TLE

FraisSource: Space-Track

Époque: Sep 14, 2026, 13:45 UTC

1 07663U 75012A   26257.57331934 -.00000035  00000-0  31454-4 0  9994
2 07663  69.2313 288.0113 0023739  19.4960 147.7168 12.68302520388860

Suivez COSMOS 708 en temps réel avec AllMySat

Download on the App Store